owner,sensor,date,latitude,longitude,vertical_datum,wind_speed,wind_to_direction,wind_speed_of_gust,qcFlag 
WAVCIS,ioos:station:WAVCIS:CSI09:1,2016-04-01T00:00:00Z,29.1015,-89.9782,0.0,9.31,174.0,,'11111222,11111222,99999999' 
WAVCIS,ioos:station:WAVCIS:CSI09:1,2016-04-01T01:00:00Z,29.1015,-89.9782,0.0,9.39,173.0,,'11111222,11111222,99999999' 
WAVCIS,ioos:station:WAVCIS:CSI09:1,2016-04-01T02:00:00Z,29.1015,-89.9782,0.0,8.92,179.0,,'11111222,11111222,99999999' 
WAVCIS,ioos:station:WAVCIS:CSI09:1,2016-04-01T03:00:00Z,29.1015,-89.9782,0.0,5.263,184.0,,'11111222,11111222,99999999' 
WAVCIS,ioos:station:WAVCIS:CSI09:1,2016-04-01T04:00:00Z,29.1015,-89.9782,0.0,3.816,210.0,,'11111222,11111222,99999999' 
WAVCIS,ioos:station:WAVCIS:CSI09:1,2016-04-01T05:00:00Z,29.1015,-89.9782,0.0,5.409,208.0,,'11111222,11111222,99999999' 
WAVCIS,ioos:station:WAVCIS:CSI09:1,2016-04-01T06:00:00Z,29.1015,-89.9782,0.0,5.722,209.0,,'11111222,11111222,99999999' 
WAVCIS,ioos:station:WAVCIS:CSI09:1,2016-04-01T07:00:00Z,29.1015,-89.9782,0.0,4.803,210.0,,'11111222,11111222,99999999' 
WAVCIS,ioos:station:WAVCIS:CSI09:1,2016-04-01T08:00:00Z,29.1015,-89.9782,0.0,4.738,211.0,,'11111222,11111222,99999999' 
WAVCIS,ioos:station:WAVCIS:CSI09:1,2016-04-01T09:00:00Z,29.1015,-89.9782,0.0,3.494,209.0,,'11111222,11111222,99999999' 
WAVCIS,ioos:station:WAVCIS:CSI09:1,2016-04-01T10:00:00Z,29.1015,-89.9782,0.0,5.526,181.0,,'11111222,11111222,99999999' 
WAVCIS,ioos:station:WAVCIS:CSI09:1,2016-04-01T11:00:00Z,29.1015,-89.9782,0.0,5.763,169.0,,'11111222,11111222,99999999' 
WAVCIS,ioos:station:WAVCIS:CSI09:1,2016-04-01T12:00:00Z,29.1015,-89.9782,0.0,7.44,169.0,,'11111222,11111222,99999999' 
WAVCIS,ioos:station:WAVCIS:CSI09:1,2016-04-01T13:00:00Z,29.1015,-89.9782,0.0,7.43,159.0,,'11111222,11111222,99999999' 
WAVCIS,ioos:station:WAVCIS:CSI09:1,2016-04-01T14:00:00Z,29.1015,-89.9782,0.0,8.59,206.0,,'11111222,11111222,99999999' 
WAVCIS,ioos:station:WAVCIS:CSI09:1,2016-04-01T15:00:00Z,29.1015,-89.9782,0.0,4.172,161.0,,'11111222,11111222,99999999' 
WAVCIS,ioos:station:WAVCIS:CSI09:1,2016-04-01T16:00:00Z,29.1015,-89.9782,0.0,7.56,173.0,,'11111222,11111222,99999999' 
WAVCIS,ioos:station:WAVCIS:CSI09:1,2016-04-01T17:00:00Z,29.1015,-89.9782,0.0,3.588,139.0,,'11111222,11111222,99999999' 
WAVCIS,ioos:station:WAVCIS:CSI09:1,2016-04-01T18:00:00Z,29.1015,-89.9782,0.0,4.027,167.0,,'11111222,11111222,99999999' 
WAVCIS,ioos:station:WAVCIS:CSI09:1,2016-04-01T19:00:00Z,29.1015,-89.9782,0.0,1.609,316.0,,'11111222,11111222,99999999' 
WAVCIS,ioos:station:WAVCIS:CSI09:1,2016-04-01T20:00:00Z,29.1015,-89.9782,0.0,0.989,108.0,,'11111222,11111222,99999999' 
WAVCIS,ioos:station:WAVCIS:CSI09:1,2016-04-01T21:00:00Z,29.1015,-89.9782,0.0,2.224,74.0,,'11111222,11111222,99999999' 
WAVCIS,ioos:station:WAVCIS:CSI09:1,2016-04-01T22:00:00Z,29.1015,-89.9782,0.0,5.636,168.0,,'11111222,11111222,99999999' 
WAVCIS,ioos:station:WAVCIS:CSI09:1,2016-04-01T23:00:00Z,29.1015,-89.9782,0.0,17.11,339.0,,'11111222,11111222,99999999' 
WAVCIS,ioos:station:WAVCIS:CSI09:1,2016-04-02T00:00:00Z,29.1015,-89.9782,0.0,12.76,19.0,,'11111222,11111222,99999999' 
WAVCIS,ioos:station:WAVCIS:CSI09:1,2016-04-02T01:00:00Z,29.1015,-89.9782,0.0,11.96,18.0,,'11111222,11111222,99999999' 
WAVCIS,ioos:station:WAVCIS:CSI09:1,2016-04-02T02:00:00Z,29.1015,-89.9782,0.0,14.53,16.0,,'11111222,11111222,99999999' 
WAVCIS,ioos:station:WAVCIS:CSI09:1,2016-04-02T03:00:00Z,29.1015,-89.9782,0.0,16.18,10.0,,'11111222,11111222,99999999' 
WAVCIS,ioos:station:WAVCIS:CSI09:1,2016-04-02T04:00:00Z,29.1015,-89.9782,0.0,16.63,17.0,,'11111222,11111222,99999999' 
WAVCIS,ioos:station:WAVCIS:CSI09:1,2016-04-02T05:00:00Z,29.1015,-89.9782,0.0,15.41,16.0,,'11111222,11111222,99999999' 
WAVCIS,ioos:station:WAVCIS:CSI09:1,2016-04-02T06:00:00Z,29.1015,-89.9782,0.0,13.98,14.0,,'11111222,11111222,99999999' 
WAVCIS,ioos:station:WAVCIS:CSI09:1,2016-04-02T07:00:00Z,29.1015,-89.9782,0.0,14.68,6.0,,'11111222,11111222,99999999' 
WAVCIS,ioos:station:WAVCIS:CSI09:1,2016-04-02T08:00:00Z,29.1015,-89.9782,0.0,13.2,11.0,,'11111222,11111222,99999999' 
WAVCIS,ioos:station:WAVCIS:CSI09:1,2016-04-02T09:00:00Z,29.1015,-89.9782,0.0,13.88,353.0,,'11111222,11111222,99999999' 
WAVCIS,ioos:station:WAVCIS:CSI09:1,2016-04-02T10:00:00Z,29.1015,-89.9782,0.0,16.64,5.0,,'11111222,11111222,99999999' 
WAVCIS,ioos:station:WAVCIS:CSI09:1,2016-04-02T11:00:00Z,29.1015,-89.9782,0.0,15.42,9.0,,'11111222,11111222,99999999' 
WAVCIS,ioos:station:WAVCIS:CSI09:1,2016-04-02T12:00:00Z,29.1015,-89.9782,0.0,15.4,1.0,,'11111222,11111222,99999999' 
WAVCIS,ioos:station:WAVCIS:CSI09:1,2016-04-02T13:00:00Z,29.1015,-89.9782,0.0,14.63,5.0,,'11111222,11111222,99999999' 
WAVCIS,ioos:station:WAVCIS:CSI09:1,2016-04-02T14:00:00Z,29.1015,-89.9782,0.0,16.2,9.0,,'11111222,11111222,99999999' 
WAVCIS,ioos:station:WAVCIS:CSI09:1,2016-04-02T15:00:00Z,29.1015,-89.9782,0.0,15.05,10.0,,'11111222,11111222,99999999' 
WAVCIS,ioos:station:WAVCIS:CSI09:1,2016-04-02T16:00:00Z,29.1015,-89.9782,0.0,12.69,14.0,,'11111222,11111222,99999999' 
WAVCIS,ioos:station:WAVCIS:CSI09:1,2016-04-02T17:00:00Z,29.1015,-89.9782,0.0,10.5,0.0,,'11111222,11111222,99999999' 
WAVCIS,ioos:station:WAVCIS:CSI09:1,2016-04-02T18:00:00Z,29.1015,-89.9782,0.0,10.36,354.0,,'11111222,11111222,99999999' 
WAVCIS,ioos:station:WAVCIS:CSI09:1,2016-04-02T19:00:00Z,29.1015,-89.9782,0.0,10.82,352.0,,'11111222,11111222,99999999' 
WAVCIS,ioos:station:WAVCIS:CSI09:1,2016-04-02T20:00:00Z,29.1015,-89.9782,0.0,8.73,346.0,,'11111222,11111222,99999999' 
WAVCIS,ioos:station:WAVCIS:CSI09:1,2016-04-02T21:00:00Z,29.1015,-89.9782,0.0,9.45,343.0,,'11111222,11111222,99999999' 
WAVCIS,ioos:station:WAVCIS:CSI09:1,2016-04-02T22:00:00Z,29.1015,-89.9782,0.0,8.01,336.0,,'11111222,11111222,99999999' 
WAVCIS,ioos:station:WAVCIS:CSI09:1,2016-04-02T23:00:00Z,29.1015,-89.9782,0.0,7.77,350.0,,'11111222,11111222,99999999' 
WAVCIS,ioos:station:WAVCIS:CSI09:1,2016-04-03T00:00:00Z,29.1015,-89.9782,0.0,7.55,339.0,,'11111222,11111222,99999999' 
WAVCIS,ioos:station:WAVCIS:CSI09:1,2016-04-03T01:00:00Z,29.1015,-89.9782,0.0,7.67,347.0,,'11111222,11111222,99999999' 
WAVCIS,ioos:station:WAVCIS:CSI09:1,2016-04-03T02:00:00Z,29.1015,-89.9782,0.0,8.0,344.0,,'11111222,11111222,99999999' 
WAVCIS,ioos:station:WAVCIS:CSI09:1,2016-04-03T03:00:00Z,29.1015,-89.9782,0.0,9.26,336.0,,'11111222,11111222,99999999' 
WAVCIS,ioos:station:WAVCIS:CSI09:1,2016-04-03T04:00:00Z,29.1015,-89.9782,0.0,9.19,334.0,,'11111222,11111222,99999999' 
WAVCIS,ioos:station:WAVCIS:CSI09:1,2016-04-03T05:00:00Z,29.1015,-89.9782,0.0,9.99,1.0,,'11111222,11111222,99999999' 
WAVCIS,ioos:station:WAVCIS:CSI09:1,2016-04-03T06:00:00Z,29.1015,-89.9782,0.0,10.61,356.0,,'11111222,11111222,99999999' 
WAVCIS,ioos:station:WAVCIS:CSI09:1,2016-04-03T07:00:00Z,29.1015,-89.9782,0.0,9.39,358.0,,'11111222,11111222,99999999' 
WAVCIS,ioos:station:WAVCIS:CSI09:1,2016-04-03T08:00:00Z,29.1015,-89.9782,0.0,10.72,7.0,,'11111222,11111222,99999999' 
WAVCIS,ioos:station:WAVCIS:CSI09:1,2016-04-03T09:00:00Z,29.1015,-89.9782,0.0,10.61,13.0,,'11111222,11111222,99999999' 
WAVCIS,ioos:station:WAVCIS:CSI09:1,2016-04-03T10:00:00Z,29.1015,-89.9782,0.0,10.59,15.0,,'11111222,11111222,99999999' 
WAVCIS,ioos:station:WAVCIS:CSI09:1,2016-04-03T11:00:00Z,29.1015,-89.9782,0.0,9.76,21.0,,'11111222,11111222,99999999' 
WAVCIS,ioos:station:WAVCIS:CSI09:1,2016-04-03T12:00:00Z,29.1015,-89.9782,0.0,9.97,20.0,,'11111222,11111222,99999999' 
WAVCIS,ioos:station:WAVCIS:CSI09:1,2016-04-03T13:00:00Z,29.1015,-89.9782,0.0,9.74,24.0,,'11111222,11111222,99999999' 
WAVCIS,ioos:station:WAVCIS:CSI09:1,2016-04-03T14:00:00Z,29.1015,-89.9782,0.0,8.33,22.0,,'11111222,11111222,99999999' 
WAVCIS,ioos:station:WAVCIS:CSI09:1,2016-04-03T15:00:00Z,29.1015,-89.9782,0.0,7.75,25.0,,'11111222,11111222,99999999' 
WAVCIS,ioos:station:WAVCIS:CSI09:1,2016-04-03T16:00:00Z,29.1015,-89.9782,0.0,6.744,30.0,,'11111222,11111222,99999999' 
WAVCIS,ioos:station:WAVCIS:CSI09:1,2016-04-03T17:00:00Z,29.1015,-89.9782,0.0,5.2,33.0,,'11111222,11111222,99999999' 
WAVCIS,ioos:station:WAVCIS:CSI09:1,2016-04-03T18:00:00Z,29.1015,-89.9782,0.0,3.623,26.0,,'11111222,11111222,99999999' 
WAVCIS,ioos:station:WAVCIS:CSI09:1,2016-04-03T19:00:00Z,29.1015,-89.9782,0.0,3.706,48.0,,'11111222,11111222,99999999' 
WAVCIS,ioos:station:WAVCIS:CSI09:1,2016-04-03T20:00:00Z,29.1015,-89.9782,0.0,2.862,62.0,,'11111222,11111222,99999999' 
WAVCIS,ioos:station:WAVCIS:CSI09:1,2016-04-03T21:00:00Z,29.1015,-89.9782,0.0,3.276,61.0,,'11111222,11111222,99999999' 
WAVCIS,ioos:station:WAVCIS:CSI09:1,2016-04-03T22:00:00Z,29.1015,-89.9782,0.0,1.977,95.0,,'11111222,11111222,99999999' 
WAVCIS,ioos:station:WAVCIS:CSI09:1,2016-04-03T23:00:00Z,29.1015,-89.9782,0.0,2.217,129.0,,'11111222,11111222,99999999' 
WAVCIS,ioos:station:WAVCIS:CSI09:1,2016-04-04T00:00:00Z,29.1015,-89.9782,0.0,3.293,140.0,,'11111222,11111222,99999999' 
WAVCIS,ioos:station:WAVCIS:CSI09:1,2016-04-04T01:00:00Z,29.1015,-89.9782,0.0,4.172,153.0,,'11111222,11111222,99999999' 
WAVCIS,ioos:station:WAVCIS:CSI09:1,2016-04-04T02:00:00Z,29.1015,-89.9782,0.0,4.011,175.0,,'11111222,11111222,99999999' 
WAVCIS,ioos:station:WAVCIS:CSI09:1,2016-04-04T03:00:00Z,29.1015,-89.9782,0.0,4.282,177.0,,'11111222,11111222,99999999' 
WAVCIS,ioos:station:WAVCIS:CSI09:1,2016-04-04T04:00:00Z,29.1015,-89.9782,0.0,4.307,213.0,,'11111222,11111222,99999999' 
WAVCIS,ioos:station:WAVCIS:CSI09:1,2016-04-04T05:00:00Z,29.1015,-89.9782,0.0,5.013,241.0,,'11111222,11111222,99999999' 
WAVCIS,ioos:station:WAVCIS:CSI09:1,2016-04-04T06:00:00Z,29.1015,-89.9782,0.0,6.82,247.0,,'11111222,11111222,99999999' 
WAVCIS,ioos:station:WAVCIS:CSI09:1,2016-04-04T07:00:00Z,29.1015,-89.9782,0.0,6.565,265.0,,'11111222,11111222,99999999' 
WAVCIS,ioos:station:WAVCIS:CSI09:1,2016-04-04T08:00:00Z,29.1015,-89.9782,0.0,6.485,278.0,,'11111222,11111222,99999999' 
WAVCIS,ioos:station:WAVCIS:CSI09:1,2016-04-04T09:00:00Z,29.1015,-89.9782,0.0,6.53,273.0,,'11111222,11111222,99999999' 
WAVCIS,ioos:station:WAVCIS:CSI09:1,2016-04-04T10:00:00Z,29.1015,-89.9782,0.0,6.28,288.0,,'11111222,11111222,99999999' 
WAVCIS,ioos:station:WAVCIS:CSI09:1,2016-04-04T11:00:00Z,29.1015,-89.9782,0.0,6.86,297.0,,'11111222,11111222,99999999' 
WAVCIS,ioos:station:WAVCIS:CSI09:1,2016-04-04T12:00:00Z,29.1015,-89.9782,0.0,6.659,320.0,,'11111222,11111222,99999999' 
WAVCIS,ioos:station:WAVCIS:CSI09:1,2016-04-04T13:00:00Z,29.1015,-89.9782,0.0,6.428,333.0,,'11111222,11111222,99999999' 
WAVCIS,ioos:station:WAVCIS:CSI09:1,2016-04-04T14:00:00Z,29.1015,-89.9782,0.0,5.726,335.0,,'11111222,11111222,99999999' 
WAVCIS,ioos:station:WAVCIS:CSI09:1,2016-04-04T15:00:00Z,29.1015,-89.9782,0.0,5.448,333.0,,'11111222,11111222,99999999' 
WAVCIS,ioos:station:WAVCIS:CSI09:1,2016-04-04T16:00:00Z,29.1015,-89.9782,0.0,4.441,341.0,,'11111222,11111222,99999999' 
WAVCIS,ioos:station:WAVCIS:CSI09:1,2016-04-04T17:00:00Z,29.1015,-89.9782,0.0,3.826,343.0,,'11111222,11111222,99999999' 
WAVCIS,ioos:station:WAVCIS:CSI09:1,2016-04-04T18:00:00Z,29.1015,-89.9782,0.0,2.297,344.0,,'11111222,11111222,99999999' 
WAVCIS,ioos:station:WAVCIS:CSI09:1,2016-04-04T19:00:00Z,29.1015,-89.9782,0.0,0.826,351.0,,'11111222,11111222,99999999' 
WAVCIS,ioos:station:WAVCIS:CSI09:1,2016-04-04T20:00:00Z,29.1015,-89.9782,0.0,0.214,115.0,,'11111222,11111222,99999999' 
WAVCIS,ioos:station:WAVCIS:CSI09:1,2016-04-04T21:00:00Z,29.1015,-89.9782,0.0,3.022,220.0,,'11111222,11111222,99999999' 
WAVCIS,ioos:station:WAVCIS:CSI09:1,2016-04-04T22:00:00Z,29.1015,-89.9782,0.0,4.031,224.0,,'11111222,11111222,99999999' 
WAVCIS,ioos:station:WAVCIS:CSI09:1,2016-04-04T23:00:00Z,29.1015,-89.9782,0.0,4.813,231.0,,'11111222,11111222,99999999' 
WAVCIS,ioos:station:WAVCIS:CSI09:1,2016-04-05T00:00:00Z,29.1015,-89.9782,0.0,5.662,236.0,,'11111222,11111222,99999999' 
WAVCIS,ioos:station:WAVCIS:CSI09:1,2016-04-05T01:00:00Z,29.1015,-89.9782,0.0,6.365,244.0,,'11111222,11111222,99999999' 
WAVCIS,ioos:station:WAVCIS:CSI09:1,2016-04-05T02:00:00Z,29.1015,-89.9782,0.0,6.545,252.0,,'11111222,11111222,99999999' 
WAVCIS,ioos:station:WAVCIS:CSI09:1,2016-04-05T03:00:00Z,29.1015,-89.9782,0.0,6.323,249.0,,'11111222,11111222,99999999' 
WAVCIS,ioos:station:WAVCIS:CSI09:1,2016-04-05T04:00:00Z,29.1015,-89.9782,0.0,6.916,251.0,,'11111222,11111222,99999999' 
WAVCIS,ioos:station:WAVCIS:CSI09:1,2016-04-05T05:00:00Z,29.1015,-89.9782,0.0,6.989,257.0,,'11111222,11111222,99999999' 
WAVCIS,ioos:station:WAVCIS:CSI09:1,2016-04-05T06:00:00Z,29.1015,-89.9782,0.0,6.912,266.0,,'11111222,11111222,99999999' 
WAVCIS,ioos:station:WAVCIS:CSI09:1,2016-04-05T07:00:00Z,29.1015,-89.9782,0.0,6.547,275.0,,'11111222,11111222,99999999' 
WAVCIS,ioos:station:WAVCIS:CSI09:1,2016-04-05T08:00:00Z,29.1015,-89.9782,0.0,6.408,278.0,,'11111222,11111222,99999999' 
WAVCIS,ioos:station:WAVCIS:CSI09:1,2016-04-05T09:00:00Z,29.1015,-89.9782,0.0,5.609,295.0,,'11111222,11111222,99999999' 
WAVCIS,ioos:station:WAVCIS:CSI09:1,2016-04-05T10:00:00Z,29.1015,-89.9782,0.0,4.443,311.0,,'11111222,11111222,99999999' 
WAVCIS,ioos:station:WAVCIS:CSI09:1,2016-04-05T11:00:00Z,29.1015,-89.9782,0.0,5.269,309.0,,'11111222,11111222,99999999' 
WAVCIS,ioos:station:WAVCIS:CSI09:1,2016-04-05T12:00:00Z,29.1015,-89.9782,0.0,5.676,308.0,,'11111222,11111222,99999999' 
WAVCIS,ioos:station:WAVCIS:CSI09:1,2016-04-05T13:00:00Z,29.1015,-89.9782,0.0,5.169,305.0,,'11111222,11111222,99999999' 
WAVCIS,ioos:station:WAVCIS:CSI09:1,2016-04-05T14:00:00Z,29.1015,-89.9782,0.0,4.082,305.0,,'11111222,11111222,99999999' 
WAVCIS,ioos:station:WAVCIS:CSI09:1,2016-04-05T15:00:00Z,29.1015,-89.9782,0.0,3.853,317.0,,'11111222,11111222,99999999' 
WAVCIS,ioos:station:WAVCIS:CSI09:1,2016-04-05T16:00:00Z,29.1015,-89.9782,0.0,4.02,336.0,,'11111222,11111222,99999999' 
WAVCIS,ioos:station:WAVCIS:CSI09:1,2016-04-05T17:00:00Z,29.1015,-89.9782,0.0,3.041,340.0,,'11111222,11111222,99999999' 
WAVCIS,ioos:station:WAVCIS:CSI09:1,2016-04-05T18:00:00Z,29.1015,-89.9782,0.0,0.763,34.0,,'11111222,11111222,99999999' 
WAVCIS,ioos:station:WAVCIS:CSI09:1,2016-04-05T19:00:00Z,29.1015,-89.9782,0.0,0.671,90.0,,'11111222,11111222,99999999' 
WAVCIS,ioos:station:WAVCIS:CSI09:1,2016-04-05T20:00:00Z,29.1015,-89.9782,0.0,1.936,93.0,,'11111222,11111222,99999999' 
WAVCIS,ioos:station:WAVCIS:CSI09:1,2016-04-05T21:00:00Z,29.1015,-89.9782,0.0,1.003,130.0,,'11111222,11111222,99999999' 
WAVCIS,ioos:station:WAVCIS:CSI09:1,2016-04-05T22:00:00Z,29.1015,-89.9782,0.0,0.421,131.0,,'11111222,11111222,99999999' 
WAVCIS,ioos:station:WAVCIS:CSI09:1,2016-04-05T23:00:00Z,29.1015,-89.9782,0.0,0.225,160.0,,'11111222,11111222,99999999' 
WAVCIS,ioos:station:WAVCIS:CSI09:1,2016-04-06T00:00:00Z,29.1015,-89.9782,0.0,1.541,82.0,,'11111222,11111222,99999999' 
WAVCIS,ioos:station:WAVCIS:CSI09:1,2016-04-06T01:00:00Z,29.1015,-89.9782,0.0,1.376,147.0,,'11111222,11111222,99999999' 
WAVCIS,ioos:station:WAVCIS:CSI09:1,2016-04-06T02:00:00Z,29.1015,-89.9782,0.0,1.313,175.0,,'11111222,11111222,99999999' 
WAVCIS,ioos:station:WAVCIS:CSI09:1,2016-04-06T03:00:00Z,29.1015,-89.9782,0.0,2.477,180.0,,'11111222,11111222,99999999' 
WAVCIS,ioos:station:WAVCIS:CSI09:1,2016-04-06T04:00:00Z,29.1015,-89.9782,0.0,3.03,173.0,,'11111222,11111222,99999999' 
WAVCIS,ioos:station:WAVCIS:CSI09:1,2016-04-06T05:00:00Z,29.1015,-89.9782,0.0,3.168,174.0,,'11111222,11111222,99999999' 
WAVCIS,ioos:station:WAVCIS:CSI09:1,2016-04-06T06:00:00Z,29.1015,-89.9782,0.0,3.215,176.0,,'11111222,11111222,99999999' 
WAVCIS,ioos:station:WAVCIS:CSI09:1,2016-04-06T07:00:00Z,29.1015,-89.9782,0.0,3.996,170.0,,'11111222,11111222,99999999' 
WAVCIS,ioos:station:WAVCIS:CSI09:1,2016-04-06T08:00:00Z,29.1015,-89.9782,0.0,4.15,170.0,,'11111222,11111222,99999999' 
WAVCIS,ioos:station:WAVCIS:CSI09:1,2016-04-06T09:00:00Z,29.1015,-89.9782,0.0,3.753,174.0,,'11111222,11111222,99999999' 
WAVCIS,ioos:station:WAVCIS:CSI09:1,2016-04-06T10:00:00Z,29.1015,-89.9782,0.0,3.267,176.0,,'11111222,11111222,99999999' 
WAVCIS,ioos:station:WAVCIS:CSI09:1,2016-04-06T11:00:00Z,29.1015,-89.9782,0.0,2.6,200.0,3.1,'11111222,11111222,11111222' 
WAVCIS,ioos:station:WAVCIS:CSI09:1,2016-04-06T12:00:00Z,29.1015,-89.9782,0.0,3.553,166.0,,'11111222,11111222,99999999' 
WAVCIS,ioos:station:WAVCIS:CSI09:1,2016-04-06T13:00:00Z,29.1015,-89.9782,0.0,4.343,168.0,,'11111222,11111222,99999999' 
WAVCIS,ioos:station:WAVCIS:CSI09:1,2016-04-06T14:00:00Z,29.1015,-89.9782,0.0,5.36,176.0,,'11111222,11111222,99999999' 
WAVCIS,ioos:station:WAVCIS:CSI09:1,2016-04-06T15:00:00Z,29.1015,-89.9782,0.0,5.7,160.0,6.7,'11111222,11111222,11111222' 
WAVCIS,ioos:station:WAVCIS:CSI09:1,2016-04-06T16:00:00Z,29.1015,-89.9782,0.0,5.7,170.0,6.2,'11111222,11111222,11111222' 
WAVCIS,ioos:station:WAVCIS:CSI09:1,2016-04-06T17:00:00Z,29.1015,-89.9782,0.0,4.6,210.0,6.2,'11111222,11111222,11111222' 
WAVCIS,ioos:station:WAVCIS:CSI09:1,2016-04-06T18:00:00Z,29.1015,-89.9782,0.0,5.652,229.0,,'11111222,11111222,99999999' 
WAVCIS,ioos:station:WAVCIS:CSI09:1,2016-04-06T19:00:00Z,29.1015,-89.9782,0.0,6.687,240.0,,'11111222,11111222,99999999' 
WAVCIS,ioos:station:WAVCIS:CSI09:1,2016-04-06T20:00:00Z,29.1015,-89.9782,0.0,7.46,237.0,,'11111222,11111222,99999999' 
WAVCIS,ioos:station:WAVCIS:CSI09:1,2016-04-06T21:00:00Z,29.1015,-89.9782,0.0,9.83,244.0,,'11111222,11111222,99999999' 
WAVCIS,ioos:station:WAVCIS:CSI09:1,2016-04-06T22:00:00Z,29.1015,-89.9782,0.0,7.88,241.0,,'11111222,11111222,99999999' 
WAVCIS,ioos:station:WAVCIS:CSI09:1,2016-04-06T23:00:00Z,29.1015,-89.9782,0.0,6.92,227.0,,'11111222,11111222,99999999' 
WAVCIS,ioos:station:WAVCIS:CSI09:1,2016-04-07T00:00:00Z,29.1015,-89.9782,0.0,7.56,233.0,,'11111222,11111222,99999999' 
WAVCIS,ioos:station:WAVCIS:CSI09:1,2016-04-07T01:00:00Z,29.1015,-89.9782,0.0,7.49,238.0,,'11111222,11111222,99999999' 
WAVCIS,ioos:station:WAVCIS:CSI09:1,2016-04-07T02:00:00Z,29.1015,-89.9782,0.0,8.47,246.0,,'11111222,11111222,99999999' 
WAVCIS,ioos:station:WAVCIS:CSI09:1,2016-04-07T03:00:00Z,29.1015,-89.9782,0.0,8.64,245.0,,'11111222,11111222,99999999' 
WAVCIS,ioos:station:WAVCIS:CSI09:1,2016-04-07T04:00:00Z,29.1015,-89.9782,0.0,9.04,255.0,,'11111222,11111222,99999999' 
WAVCIS,ioos:station:WAVCIS:CSI09:1,2016-04-07T05:00:00Z,29.1015,-89.9782,0.0,9.63,264.0,,'11111222,11111222,99999999' 
WAVCIS,ioos:station:WAVCIS:CSI09:1,2016-04-07T06:00:00Z,29.1015,-89.9782,0.0,8.75,270.0,,'11111222,11111222,99999999' 
WAVCIS,ioos:station:WAVCIS:CSI09:1,2016-04-07T07:00:00Z,29.1015,-89.9782,0.0,9.37,271.0,,'11111222,11111222,99999999' 
WAVCIS,ioos:station:WAVCIS:CSI09:1,2016-04-07T08:00:00Z,29.1015,-89.9782,0.0,9.0,269.0,,'11111222,11111222,99999999' 
WAVCIS,ioos:station:WAVCIS:CSI09:1,2016-04-07T09:00:00Z,29.1015,-89.9782,0.0,10.65,281.0,,'11111222,11111222,99999999' 
WAVCIS,ioos:station:WAVCIS:CSI09:1,2016-04-07T10:00:00Z,29.1015,-89.9782,0.0,8.66,296.0,,'11111222,11111222,99999999' 
WAVCIS,ioos:station:WAVCIS:CSI09:1,2016-04-07T11:00:00Z,29.1015,-89.9782,0.0,7.12,303.0,,'11111222,11111222,99999999' 
WAVCIS,ioos:station:WAVCIS:CSI09:1,2016-04-07T12:00:00Z,29.1015,-89.9782,0.0,6.516,323.0,,'11111222,11111222,99999999' 
WAVCIS,ioos:station:WAVCIS:CSI09:1,2016-04-07T13:00:00Z,29.1015,-89.9782,0.0,5.607,328.0,,'11111222,11111222,99999999' 
WAVCIS,ioos:station:WAVCIS:CSI09:1,2016-04-07T14:00:00Z,29.1015,-89.9782,0.0,4.081,322.0,,'11111222,11111222,99999999' 
WAVCIS,ioos:station:WAVCIS:CSI09:1,2016-04-07T15:00:00Z,29.1015,-89.9782,0.0,3.495,329.0,,'11111222,11111222,99999999' 
WAVCIS,ioos:station:WAVCIS:CSI09:1,2016-04-07T16:00:00Z,29.1015,-89.9782,0.0,1.465,43.0,,'11111222,11111222,99999999' 
WAVCIS,ioos:station:WAVCIS:CSI09:1,2016-04-07T17:00:00Z,29.1015,-89.9782,0.0,0.357,82.0,,'11111222,11111222,99999999' 
WAVCIS,ioos:station:WAVCIS:CSI09:1,2016-04-07T18:00:00Z,29.1015,-89.9782,0.0,0.733,284.0,,'11111222,11111222,99999999' 
WAVCIS,ioos:station:WAVCIS:CSI09:1,2016-04-07T19:00:00Z,29.1015,-89.9782,0.0,1.96,250.0,,'11111222,11111222,99999999' 
WAVCIS,ioos:station:WAVCIS:CSI09:1,2016-04-07T20:00:00Z,29.1015,-89.9782,0.0,2.7,226.0,,'11111222,11111222,99999999' 
WAVCIS,ioos:station:WAVCIS:CSI09:1,2016-04-07T21:00:00Z,29.1015,-89.9782,0.0,5.401,231.0,,'11111222,11111222,99999999' 
WAVCIS,ioos:station:WAVCIS:CSI09:1,2016-04-07T22:00:00Z,29.1015,-89.9782,0.0,5.908,233.0,,'11111222,11111222,99999999' 
WAVCIS,ioos:station:WAVCIS:CSI09:1,2016-04-07T23:00:00Z,29.1015,-89.9782,0.0,6.553,236.0,,'11111222,11111222,99999999' 
WAVCIS,ioos:station:WAVCIS:CSI09:1,2016-04-08T00:00:00Z,29.1015,-89.9782,0.0,7.48,249.0,,'11111222,11111222,99999999' 
WAVCIS,ioos:station:WAVCIS:CSI09:1,2016-04-08T01:00:00Z,29.1015,-89.9782,0.0,7.42,245.0,,'11111222,11111222,99999999' 
WAVCIS,ioos:station:WAVCIS:CSI09:1,2016-04-08T02:00:00Z,29.1015,-89.9782,0.0,7.11,247.0,,'11111222,11111222,99999999' 
WAVCIS,ioos:station:WAVCIS:CSI09:1,2016-04-08T03:00:00Z,29.1015,-89.9782,0.0,6.475,259.0,,'11111222,11111222,99999999' 
WAVCIS,ioos:station:WAVCIS:CSI09:1,2016-04-08T04:00:00Z,29.1015,-89.9782,0.0,6.261,265.0,,'11111222,11111222,99999999' 
WAVCIS,ioos:station:WAVCIS:CSI09:1,2016-04-08T05:00:00Z,29.1015,-89.9782,0.0,5.801,275.0,,'11111222,11111222,99999999' 
WAVCIS,ioos:station:WAVCIS:CSI09:1,2016-04-08T06:00:00Z,29.1015,-89.9782,0.0,4.657,265.0,,'11111222,11111222,99999999' 
WAVCIS,ioos:station:WAVCIS:CSI09:1,2016-04-08T07:00:00Z,29.1015,-89.9782,0.0,6.614,274.0,,'11111222,11111222,99999999' 
WAVCIS,ioos:station:WAVCIS:CSI09:1,2016-04-08T08:00:00Z,29.1015,-89.9782,0.0,6.039,283.0,,'11111222,11111222,99999999' 
WAVCIS,ioos:station:WAVCIS:CSI09:1,2016-04-08T09:00:00Z,29.1015,-89.9782,0.0,6.124,280.0,,'11111222,11111222,99999999' 
WAVCIS,ioos:station:WAVCIS:CSI09:1,2016-04-08T10:00:00Z,29.1015,-89.9782,0.0,6.497,277.0,,'11111222,11111222,99999999' 
WAVCIS,ioos:station:WAVCIS:CSI09:1,2016-04-08T11:00:00Z,29.1015,-89.9782,0.0,6.375,279.0,,'11111222,11111222,99999999' 
WAVCIS,ioos:station:WAVCIS:CSI09:1,2016-04-08T12:00:00Z,29.1015,-89.9782,0.0,8.11,296.0,,'11111222,11111222,99999999' 
WAVCIS,ioos:station:WAVCIS:CSI09:1,2016-04-08T13:00:00Z,29.1015,-89.9782,0.0,8.26,322.0,,'11111222,11111222,99999999' 
WAVCIS,ioos:station:WAVCIS:CSI09:1,2016-04-08T14:00:00Z,29.1015,-89.9782,0.0,7.85,338.0,,'11111222,11111222,99999999' 
WAVCIS,ioos:station:WAVCIS:CSI09:1,2016-04-08T15:00:00Z,29.1015,-89.9782,0.0,9.82,3.0,,'11111222,11111222,99999999' 
WAVCIS,ioos:station:WAVCIS:CSI09:1,2016-04-08T16:00:00Z,29.1015,-89.9782,0.0,10.65,17.0,,'11111222,11111222,99999999' 
WAVCIS,ioos:station:WAVCIS:CSI09:1,2016-04-08T17:00:00Z,29.1015,-89.9782,0.0,7.58,20.0,,'11111222,11111222,99999999' 
WAVCIS,ioos:station:WAVCIS:CSI09:1,2016-04-08T18:00:00Z,29.1015,-89.9782,0.0,4.651,17.0,,'11111222,11111222,99999999' 
WAVCIS,ioos:station:WAVCIS:CSI09:1,2016-04-08T19:00:00Z,29.1015,-89.9782,0.0,3.148,42.0,,'11111222,11111222,99999999' 
WAVCIS,ioos:station:WAVCIS:CSI09:1,2016-04-08T20:00:00Z,29.1015,-89.9782,0.0,3.882,13.0,,'11111222,11111222,99999999' 
WAVCIS,ioos:station:WAVCIS:CSI09:1,2016-04-08T21:00:00Z,29.1015,-89.9782,0.0,5.517,342.0,,'11111222,11111222,99999999' 
WAVCIS,ioos:station:WAVCIS:CSI09:1,2016-04-08T22:00:00Z,29.1015,-89.9782,0.0,6.075,352.0,,'11111222,11111222,99999999' 
WAVCIS,ioos:station:WAVCIS:CSI09:1,2016-04-08T23:00:00Z,29.1015,-89.9782,0.0,6.491,353.0,,'11111222,11111222,99999999' 
WAVCIS,ioos:station:WAVCIS:CSI09:1,2016-04-09T00:00:00Z,29.1015,-89.9782,0.0,5.389,357.0,,'11111222,11111222,99999999' 
WAVCIS,ioos:station:WAVCIS:CSI09:1,2016-04-09T01:00:00Z,29.1015,-89.9782,0.0,3.48,343.0,,'11111222,11111222,99999999' 
WAVCIS,ioos:station:WAVCIS:CSI09:1,2016-04-09T02:00:00Z,29.1015,-89.9782,0.0,5.8,347.0,,'11111222,11111222,99999999' 
WAVCIS,ioos:station:WAVCIS:CSI09:1,2016-04-09T03:00:00Z,29.1015,-89.9782,0.0,5.438,334.0,,'11111222,11111222,99999999' 
WAVCIS,ioos:station:WAVCIS:CSI09:1,2016-04-09T04:00:00Z,29.1015,-89.9782,0.0,6.717,343.0,,'11111222,11111222,99999999' 
WAVCIS,ioos:station:WAVCIS:CSI09:1,2016-04-09T05:00:00Z,29.1015,-89.9782,0.0,8.73,0.0,,'11111222,11111222,99999999' 
WAVCIS,ioos:station:WAVCIS:CSI09:1,2016-04-09T06:00:00Z,29.1015,-89.9782,0.0,10.34,14.0,,'11111222,11111222,99999999' 
WAVCIS,ioos:station:WAVCIS:CSI09:1,2016-04-09T07:00:00Z,29.1015,-89.9782,0.0,9.02,24.0,,'11111222,11111222,99999999' 